Location: Buckeye Ditch
(40.9104°N, 122.9517°W)
Time: 14:49:46
(UTC+00:00)

Cosmos 1933 Rocket - Pass Details

Date: 13 April 2024
Orbit: 602 x 623 km, 82.5° (Epoch: 21 May)

Event Time Altitude Azimuth Distance (km) Brightness Sun altitude
Rises 12:54:51 0° 352° (N) 2,887 7.2 -8.1°
Reaches altitude 10° 12:57:05 10° 353° (N) 1,974 6.3 -7.7°
Maximum altitude 13:01:28 89° 75° (ENE) 614 3.6 -6.9°
Drops below altitude 10° 13:05:47 10° 173° (S) 1,946 6.0 -6.1°
Sets 13:07:58 0° 174° (S) 2,842 6.8 -5.7°
